DW9920 Weather Reports


time (UTC)temp
C
wind
direction
speed
KPH
gust
KPH
rain 1hr
cm
rain 24hr
cm
rain mn
cm
humidity
%
barometer
mb
20260507140054 10 300 0.0 1.6 0.00 0.00 0.00 54 1009.8
20260507134554 9 4 0.0 3.2 0.00 0.00 0.00 42 1009.8
20260507133049 8 333 0.0 1.6 0.00 0.00 0.00 37 1009.9
20260507131548 8 293 0.0 1.6 0.00 0.00 0.00 34 1009.9
20260507130047 8 170 0.0 1.6 0.00 0.00 0.00 34 1009.8
20260507124546 8 156 0.0 1.6 0.00 0.00 0.00 34 1009.6
20260507123048 8 350 0.0 1.6 0.00 0.00 0.00 33 1009.7
20260507121546 8 350 0.0 0.0 0.00 0.00 0.00 32 1009.8
20260507120053 8 353 0.0 3.2 0.00 0.00 0.00 33 1010.0
20260507114544 8 168 0.0 0.0 0.00 0.00 0.00 32 1009.7
20260507113047 7 181 0.0 1.6 0.00 0.00 0.00 32 1009.4
20260507111541 7 315 0.0 1.6 0.00 0.00 0.00 33 1009.2
20260507110040 7 37 0.0 4.8 0.00 0.00 0.00 33 1009.1
20260507104539 7 88 0.0 1.6 0.00 0.00 0.00 33 1008.9
20260507103038 7 29 0.0 6.4 0.00 0.00 0.00 32 1008.9
20260507101537 8 315 3.2 4.8 0.00 0.00 0.00 32 1009.0
20260507100037 8 274 0.0 4.8 0.00 0.00 0.00 32 1009.1
20260507094534 8 313 1.6 8.0 0.00 0.00 0.00 32 1008.8
20260507093030 8 329 3.2 8.0 0.00 0.00 0.00 30 1008.6
20260507091528 8 342 0.0 14.5 0.00 0.00 0.00 29 1008.3
20260507090023 10 15 3.2 9.7 0.00 0.00 0.00 27 1008.6
20260507084523 10 326 0.0 0.0 0.00 0.00 0.00 26 1008.4
20260507083022 10 326 0.0 0.0 0.00 0.00 0.00 27 1008.6
20260507081525 10 329 0.0 0.0 0.00 0.00 0.00 27 1008.2
20260507080020 10 35 0.0 3.2 0.00 0.00 0.00 26 1008.3
20260507074528 10 345 0.0 0.0 0.00 0.00 0.00 26 1008.3
20260507073018 10 347 0.0 1.6 0.00 0.00 0.00 26 1008.3
20260507071517 10 308 0.0 3.2 0.00 0.00 0.00 26 1008.3
20260507070015 10 101 0.0 1.6 0.00 0.00 0.00 26 1008.6
20260507064513 10 104 0.0 0.0 0.00 0.00 0.00 26 1008.6
20260507063013 10 355 0.0 0.0 0.00 0.00 0.00 26 1009.0
20260507061512 10 342 0.0 3.2 0.00 0.00 0.00 26 1009.1
20260507060013 10 15 0.0 6.4 0.00 0.00 0.00 26 1009.1
20260507054510 10 30 0.0 1.6 0.00 0.00 0.00 25 1008.8
20260507053010 10 266 0.0 0.0 0.00 0.00 0.00 26 1009.2
20260507051507 10 307 0.0 1.6 0.00 0.00 0.00 26 1008.6
20260507050006 10 11 1.6 4.8 0.00 0.00 0.00 25 1008.7
20260507044508 10 307 0.0 3.2 0.00 0.00 0.00 25 1008.5
20260507043003 10 186 0.0 3.2 0.00 0.00 0.00 25 1009.0
20260507041502 10 283 0.0 4.8 0.00 0.00 0.00 25 1008.5
20260507040108 10 118 0.0 3.2 0.00 0.00 0.00 25 1008.8
20260507034619 10 20 0.0 6.4 0.00 0.00 0.00 24 1009.7
20260507033106 11 316 3.2 6.4 0.00 0.00 0.00 24 1009.3
20260507031553 11 313 4.8 11.3 0.00 0.00 0.00 23 1008.8
20260507030051 11 232 0.0 1.6 0.00 0.00 0.00 23 1007.9
20260507024557 11 139 0.0 3.2 0.00 0.00 0.00 23 1007.4
20260507023049 11 136 0.0 3.2 0.00 0.00 0.00 23 1007.9
20260507021555 11 5 0.0 1.6 0.00 0.00 0.00 23 1008.4
20260507020046 11 118 0.0 1.6 0.00 0.00 0.00 23 1009.0
20260507014547 11 127 0.0 3.2 0.00 0.00 0.00 23 1009.5
20260507013045 11 172 0.0 4.8 0.00 0.00 0.00 23 1009.0
20260507011544 11 194 1.6 8.0 0.00 0.00 0.00 23 1008.8
20260507010042 11 178 0.0 0.0 0.00 0.00 0.00 22 1008.4
20260507004539 12 15 0.0 4.8 0.00 0.00 0.00 22 1008.1
20260507003037 12 347 3.2 6.4 0.00 0.00 0.00 22 1008.2
20260507001556 12 117 0.0 4.8 0.00 0.00 0.00 22 1006.7
20260507000033 12 105 0.0 3.2 0.00 0.00 0.00 21 1006.8
20260506234545 12 77 1.6 6.4 0.00 0.00 0.00 21 1007.3
20260506233029 12 134 3.2 6.4 0.00 0.00 0.00 21 1007.1
20260506231532 13 193 0.0 8.0 0.00 0.00 0.00 21 1007.3
20260506230027 13 145 0.0 3.2 0.00 0.00 0.00 20 1007.1
20260506224529 13 110 0.0 1.6 0.00 0.00 0.00 20 1006.9
20260506223025 13 252 0.0 3.2 0.00 0.00 0.00 19 1007.1
20260506221524 14 256 0.0 3.2 0.00 0.00 0.00 18 1007.0
20260506220032 15 333 0.0 6.4 0.00 0.00 0.00 17 1006.4
20260506214522 15 352 1.6 3.2 0.00 0.00 0.00 17 1006.5
20260506213021 15 176 0.0 8.0 0.00 0.00 0.00 18 1006.6
20260506211523 14 225 0.0 1.6 0.00 0.00 0.00 18 1006.5
20260506210019 14 29 1.6 14.5 0.00 0.00 0.00 19 1006.4
20260506204519 15 29 4.8 16.1 0.00 0.00 0.00 16 1006.6
20260506203018 17 342 4.8 12.9 0.00 0.00 0.00 13 1006.1
20260506201518 17 304 0.0 6.4 0.00 0.00 0.00 13 1006.0
20260506200017 17 167 0.0 3.2 0.00 0.00 0.00 13 1006.0
20260506194523 17 126 0.0 1.6 0.00 0.00 0.00 12 1006.0
20260506193014 17 201 0.0 1.6 0.00 0.00 0.00 12 1006.0
20260506191514 17 233 0.0 1.6 0.00 0.00 0.00 13 1005.9
20260506190012 17 224 0.0 1.6 0.00 0.00 0.00 14 1005.7
20260506184512 17 217 0.0 0.0 0.00 0.00 0.00 14 1005.9
20260506183010 17 155 0.0 1.6 0.00 0.00 0.00 14 1005.8
20260506181510 17 139 0.0 4.8 0.00 0.00 0.00 14 1005.8
20260506180009 17 253 0.0 1.6 0.00 0.00 0.00 14 1005.9
20260506174509 17 174 0.0 1.6 0.00 0.00 0.00 14 1005.9
20260506173009 17 240 0.0 4.8 0.00 0.00 0.00 15 1005.9
20260506171508 16 163 1.6 6.4 0.00 0.00 0.00 16 1006.0
20260506170006 16 143 0.0 4.8 0.00 0.00 0.00 17 1006.2
20260506164510 15 129 0.0 1.6 0.00 0.00 0.00 18 1006.3
20260506163006 15 195 0.0 3.2 0.00 0.00 0.00 18 1006.3
20260506161504 15 203 0.0 1.6 0.00 0.00 0.00 19 1006.3
20260506160002 15 117 3.2 8.0 0.00 0.00 0.00 19 1005.9
20260506154505 15 226 0.0 6.4 0.00 0.00 0.00 19 1006.3
20260506153001 15 147 0.0 6.4 0.00 0.00 0.00 20 1006.3
20260506151501 15 162 0.0 4.8 0.00 0.00 0.00 20 1006.4
20260506150104 14 183 1.6 4.8 0.00 0.00 0.00 20 1006.7
20260506144556 14 257 0.0 1.6 0.00 0.00 0.00 20 1006.5
20260506143055 15 146 1.6 4.8 0.00 0.00 0.00 21 1005.9
20260506141554 15 126 0.0 1.6 0.00 0.00 0.00 21 1006.3